STARLINK-3826 (52347 NORAD) Tracking and Keplerian Element Data

This shows tracking and keplerian element data for the satellite.

Feedback or suggestion? Click here.




ElementValue
Catalog52347
NameSTARLINK-3826
Epoch Orbit130
Epoch Day167.08334491
Epoch Year2022
RAAN202.9391
Inclination53.2173
Eccentricity0.000131
Argument of Perigee63.3377
Mean Anonmoly84.8843
Mean Motion15.6222527
Decay Rate-0.00714878
L11 52347U 22045S 22167.08334491 -.00714878 00000+0 -86930-2 0 9998
L22 52347 53.2173 202.9391 0001310 63.3377 84.8843 15.62225270 1305

Live tracking and technical data element details for STARLINK-3826 (NORAD 52347). STARLINK-3826 can be tracked NOW for your location showing map with azimuth and elevation plus other details from your city location.

Track the satellite on the map from your city or location and see movement details for azimuth, elevation, latitude, longitude, range, height, and movement on the map or in text.







IsCatalogInMostPopularTable: catalog: 52347, numindb: 6
Update: records affected: 1



GetName: 52347 STARLINK-3826

Hit Count: updated at: Mon, 27 Jun 2022 04:41:24 GMT